{"data":{"norad_id":59355,"epoch":"2026-05-25T03:15:31.836096Z","epoch_age_seconds":70155,"freshness":"FRESH","line1":"1 59355U 24060H   26145.13578514  .00000045  00000+0  11160-4 0  9992","line2":"2 59355  42.9999 188.1820 0001491 269.9610  90.1071 15.27580762121754","mean_motion":15.27580762,"eccentricity":0.0001491,"inclination_deg":42.9999,"raan_deg":188.182,"arg_perigee_deg":269.961,"mean_anomaly_deg":90.1071,"bstar":1.116e-5,"rev_number":12175,"period_min":94.266701690761,"perigee_km":482.02381183176,"apogee_km":484.06981684519,"semimajor_km":6861.1838143385,"source":"CELESTRAK","updated_at":"2026-05-25T13:38:18.909641Z"}}